Home > Weather > Kawasaki > Past weeks

Flag for Japan Past Weather in Kawasaki, Japan — Yesterday and Last 2 Weeks

Now
70 °F

Partly cloudy.


Feels Like: 70 °F
Forecast: 68 / 77 °F
Wind: 7 mph from Northeast

Location: Tokyo International Airport

Current Time: Jun 29, 2016 at 2:03:00 AM

Latest Report: Jun 29, 2016 at 1:30 AM


Visibility: N/A

Pressure: 29.92 "Hg

Humidity: 88%

Dew Point: 66 °F

Location of KawasakiLocation

Past Weather in Kawasaki — Graph

°F

Kawasaki Temperature Yesterday

Maximum temperature yesterday: 73 °F (at 12:00 AM)
Minimum temperature yesterday: 64 °F (at 5:30 AM)
Average temperature yesterday: 68 °F

High & Low Weather Summary for the Past Weeks

 TemperatureHumidityPressure
High88 °F (Jun 18, 12:30 PM)100% (Jun 16, 8:00 PM)29.98 "Hg (Jun 16, 8:00 PM)
Low64 °F (Jun 28, 5:30 AM)35% (Jun 18, 1:00 PM)29.42 "Hg (Jun 25, 5:30 AM)
Average74 °F82%29.74 "Hg
* Reported Jun 14 12:00 AM — Jun 29 12:30 AM, Kawasaki, Weather by CustomWeather, © 2016

Note: Actual official high and low records may vary slightly from our data, if they occured in-between our weather recording intervals... More about our weather records

Advertising

Kawasaki Weather History for the Previous 24 Hours

Scroll right to see more
 ConditionsComfort  
Time TempWeatherWind HumidityBarometerVisibility
12:30 AM
Wed, Jun 29
70 °FPassing clouds.5 mph88%29.92 "HgN/A
12:00 AM70 °FPassing clouds.6 mph88%29.92 "HgN/A
11:30 PM
Tue, Jun 28
70 °FPartly cloudy.8 mph88%29.92 "HgN/A
11:00 PM70 °FPartly cloudy.7 mph88%29.92 "HgN/A
10:30 PM70 °FPassing clouds.5 mph88%29.92 "HgN/A
10:00 PM70 °FPassing clouds.5 mph88%29.92 "HgN/A
9:30 PM68 °FPartly cloudy.3 mph94%29.95 "HgN/A
9:00 PM68 °FPassing clouds.5 mph94%29.92 "HgN/A
8:30 PM68 °FPassing clouds.3 mph94%29.92 "HgN/A
8:00 PM68 °FPartly cloudy.5 mph94%29.92 "HgN/A
7:30 PM68 °FPartly cloudy.8 mph94%29.89 "HgN/A
7:00 PM68 °FLight rain. Fog.6 mph94%29.89 "HgN/A
6:30 PM70 °FLight rain. Fog.6 mph88%29.89 "HgN/A
6:00 PM68 °FBroken clouds.6 mph94%29.86 "HgN/A
5:30 PM70 °FBroken clouds.6 mph88%29.86 "HgN/A
5:00 PM68 °FLight rain. Broken clouds.5 mph94%29.86 "HgN/A
4:30 PM70 °FLight rain. Broken clouds.5 mph88%29.86 "HgN/A
4:00 PM68 °FBroken clouds.6 mph94%29.83 "HgN/A
3:30 PM68 °FBroken clouds.6 mph94%29.83 "HgN/A
3:00 PM68 °FBroken clouds.3 mph94%29.83 "HgN/A
2:30 PM68 °FLight rain. Broken clouds.5 mph94%29.83 "HgN/A
2:00 PM68 °FBroken clouds.3 mph88%29.83 "HgN/A
1:30 PM66 °FSprinkles. Broken clouds.6 mph94%29.83 "HgN/A
1:00 PM66 °FSprinkles. Broken clouds.7 mph94%29.83 "HgN/A
12:30 PM66 °FSprinkles. Broken clouds.8 mph94%29.83 "HgN/A
12:00 PM66 °FSprinkles. Broken clouds.7 mph94%29.86 "HgN/A
11:45 AM66 °FSprinkles. Partly sunny.7 mph94%29.86 "HgN/A
11:30 AM66 °FSprinkles. Broken clouds.9 mph94%29.86 "HgN/A
11:00 AM66 °FLight rain. Partly sunny.9 mph94%29.86 "Hg6 mi
10:51 AM66 °FLight rain. Broken clouds.8 mph94%29.86 "Hg5 mi
10:30 AM64 °FLight rain. Fog.10 mph100%29.86 "Hg3 mi
10:00 AM64 °FLight rain. Fog.12 mph100%29.86 "Hg3 mi
9:49 AM64 °FLight rain. Fog.13 mph100%29.86 "Hg3 mi
9:30 AM64 °FLight rain. Fog.12 mph100%29.86 "Hg3 mi
9:00 AM64 °FLight rain. Fog.14 mph100%29.86 "Hg3 mi
8:30 AM64 °FLight rain. Partly sunny.15 mph94%29.86 "Hg6 mi
8:00 AM64 °FLight rain. Partly sunny.14 mph100%29.86 "Hg5 mi
7:30 AM64 °FLight rain. Fog.14 mph100%29.89 "Hg3 mi
7:00 AM64 °FRain. Fog.12 mph94%29.89 "Hg2 mi
6:48 AM64 °FHeavy rain. Fog.13 mph94%29.89 "Hg2 mi
6:30 AM64 °FMild.14 mph94%29.86 "Hg3 mi
6:00 AM64 °FRain. Partly sunny.10 mph94%29.89 "Hg4 mi
5:30 AM64 °FRain. Partly sunny.5 mph88%29.89 "Hg4 mi
5:00 AM66 °FRain. Partly sunny.1 mph78%29.92 "Hg4 mi
4:30 AM68 °FRain. Partly sunny.3 mph78%29.92 "Hg5 mi
4:00 AM68 °FRain. Partly cloudy.5 mph83%29.89 "HgN/A
3:30 AM70 °FLight rain. Passing clouds.13 mph88%29.89 "HgN/A
3:00 AM70 °FLight rain. Passing clouds.10 mph83%29.92 "HgN/A
2:30 AM72 °FLight rain. Passing clouds.15 mph83%29.95 "Hg5 mi
2:00 AM72 °FLight rain. Low clouds.14 mph88%29.92 "Hg4 mi
Weather by CustomWeather, © 2016

See weather overviewHow to use our weather pages